Location: Atherton
(17.2661°S, 145.4859°E)
Time: 23:27:38
(UTC+10:00)

Hubble Space Telescope - Pass Details

Date: 27 May 2025
Orbit: 488 x 491 km, 28.5° (Epoch: 15 June)

Event Time Altitude Azimuth Distance (km) Brightness Sun altitude
Rises 18:37:44 0° 253° (WSW) 2,558 5.2 -11.3°
Reaches altitude 10° 18:40:01 10° 260° (W) 1,675 4.3 -11.8°
Maximum altitude 18:43:42 44° 332° (NNW) 682 1.7 -12.6°
Drops below altitude 10° 18:47:23 10° 45° (NE) 1,669 3.0 -13.4°
Enters shadow 18:48:22 - 49° (NE) 2,045 3.4 -13.7°
